This demonstration page uses our WeatherBlox Daily Observations layout. Learn more.

Left ArrowRight Arrow

34.74481, -87.66753

Hourly Observations for December 21, 2017

Temp ( °F °C ) Dew Point ( °F °C ) Humidity (%) Winds ( mph kmh ) Pressure ( in mb ) Visibility ( mi km ) Precip ( " mm )
12:53 am 00:53 Cloudy with Mist and Fog 52 11.1 50 10 93 93 WNW 8 13 29.97 1015 4 6 0.00 0.00
1:08 am 01:08 Cloudy with Mist and Fog 52 11.1 49 9.4 89 89 WNW 9 15 29.97 1015 3 4 0.00 0.00
1:42 am 01:42 Cloudy with Mist and Fog 51 10.6 49 9.4 92 92 WNW 8 13 30.00 1016 2 3 0.00 0.00
1:53 am 01:53 Cloudy with Mist and Fog 52 11.1 49 9.4 89 89 WNW 6 9 29.98 1015 3 5 0.00 0.00
2:08 am 02:08 Cloudy 52 11.1 49 9.4 89 89 NW 6 9 30.00 1016 10 16 0.00 0.00
2:21 am 02:21 Cloudy with Mist and Fog 52 11.1 49 9.4 89 89 WNW 6 9 30.00 1016 6 10 0.00 0.00
2:30 am 02:30 Cloudy 51 10.6 49 9.4 92 92 WNW 6 9 30.00 1016 9 14 0.00 0.00
2:45 am 02:45 Cloudy 51 10.6 49 9.4 92 92 NW 5 7 30.00 1016 9 14 0.00 0.00
2:53 am 02:53 Cloudy 51 10.6 48 8.9 89 89 NW 5 7 29.99 1016 7 11 0.00 0.00
3:53 am 03:53 Cloudy 51 10.6 47 8.3 86 86 NW 5 7 30.00 1016 10 16 0.00 0.00
4:37 am 04:37 Cloudy 50 10 47 8.3 89 89 N 3 6 30.00 1016 8 13 0.00 0.00
4:53 am 04:53 Cloudy with Mist and Fog 50 10 47 8.3 89 89 W 5 7 30.00 1016 6 10 0.00 0.00
5:53 am 05:53 Cloudy with Mist and Fog 50 10 47 8.3 89 89 WSW 5 7 30.02 1017 4 6 0.00 0.00
6:53 am 06:53 Cloudy with Mist and Fog 49 9.4 47 8.3 93 93 SW 5 7 30.04 1017 3 4 0.00 0.00
7:27 am 07:27 Cloudy with Mist and Fog 49 9.4 47 8.3 93 93 Calm 30.06 1018 1 2 0.00 0.00
7:38 am 07:38 Cloudy with Mist and Fog 49 9.4 47 8.3 93 93 Calm 30.06 1018 1 1 0.00 0.00
7:53 am 07:53 Cloudy with Mist and Fog 49 9.4 47 8.3 93 93 Calm 30.06 1018 1 2 0.00 0.00
8:06 am 08:06 Cloudy with Mist and Fog 49 9.4 47 8.3 93 93 Calm 30.06 1018 3 4 0.00 0.00
8:46 am 08:46 Cloudy with Mist and Fog 50 10 47 8.3 89 89 E 3 6 30.06 1018 4 6 0.00 0.00
8:53 am 08:53 Cloudy with Mist and Fog 50 10 47 8.3 89 89 SSE 3 6 30.07 1018 4 6 0.00 0.00
9:53 am 09:53 Cloudy with Mist and Fog 51 10.6 49 9.4 92 92 SE 7 11 30.07 1018 5 8 0.00 0.00
10:53 am 10:53 Cloudy 52 11.1 49 9.4 89 89 SSE 10 17 30.07 1018 8 13 0.00 0.00
11:53 am 11:53 Cloudy 53 11.7 50 10 89 89 S 6 9 30.05 1018 10 16 0.00 0.00
12:53 pm 12:53 Cloudy 54 12.2 50 10 87 87 S 6 9 30.04 1017 10 16 0.00 0.00
1:53 pm 13:53 Cloudy 55 12.8 50 10 83 83 S 9 15 30.04 1017 10 16 0.00 0.00
2:53 pm 14:53 Cloudy 55 12.8 50 10 83 83 SE 7 11 30.04 1017 10 16 0.00 0.00
3:38 pm 15:38 Cloudy 55 12.8 50 10 83 83 S 6 9 30.03 1017 10 16 0.00 0.00
3:53 pm 15:53 Cloudy 54 12.2 50 10 87 87 SSE 10 17 30.03 1017 10 16 0.00 0.00
4:40 pm 16:40 Cloudy 54 12.2 49 9.4 83 83 SSE 6 9 30.06 1018 10 16 0.00 0.00
4:53 pm 16:53 Cloudy 54 12.2 50 10 87 87 SSE 9 15 30.04 1017 10 16 0.00 0.00
5:53 pm 17:53 Cloudy 54 12.2 49 9.4 83 83 SSE 8 13 30.05 1018 10 16 0.00 0.00
6:53 pm 18:53 Cloudy 53 11.7 49 9.4 86 86 SSE 8 13 30.05 1018 10 16 0.00 0.00
7:53 pm 19:53 Cloudy 53 11.7 49 9.4 86 86 SSE 9 15 30.06 1018 10 16 0.00 0.00
8:53 pm 20:53 Cloudy 53 11.7 49 9.4 86 86 S 8 13 30.07 1018 10 16 0.00 0.00
9:53 pm 21:53 Cloudy 53 11.7 49 9.4 86 86 S 6 9 30.07 1018 10 16 0.00 0.00
10:53 pm 22:53 Partly Cloudy 52 11.1 48 8.9 86 86 SSE 7 11 30.06 1018 10 16 0.00 0.00
11:53 pm 23:53 Clear 51 10.6 48 8.9 89 89 SE 6 9 30.05 1018 8 13 0.00 0.00

Powered by AerisWeather